This is the latest recevied weather packets stored in our database for station/object AI5KP-13. If no packets are shown the sender has not sent any weather packets the latest 1 day(s).
| Time | Temp. | Humidity | Pressure | Rain* | Wind** | Luminosity | Snow |
|---|---|---|---|---|---|---|---|
| 1777984036 | 16.67° C | 92% | 1004.8 hPa | 0 mm | 0.89 m/s, 118° | 37 W/m² | - |
| 1777983734 | 16.67° C | 92% | 1005 hPa | 0 mm | 0 m/s | 23 W/m² | - |
| 1777983430 | 16.67° C | 92% | 1005 hPa | 0 mm | 1.34 m/s, 127° | 13 W/m² | - |
| 1777983127 | 16.67° C | 92% | 1005 hPa | 0 mm | 2.24 m/s, 134° | 12 W/m² | - |
| 1777982823 | 16.67° C | 92% | 1004.9 hPa | 0 mm | 2.24 m/s, 97° | 8 W/m² | - |
| 1777982519 | 16.67° C | 92% | 1005 hPa | 0 mm | 1.79 m/s, 112° | 8 W/m² | - |
| 1777982212 | 16.67° C | 92% | 1005 hPa | 0 mm | 0.89 m/s, 84° | 5 W/m² | - |
| 1777981911 | 16.67° C | 92% | 1005 hPa | 0 mm | 1.79 m/s, 97° | 3 W/m² | - |
| 1777981608 | 16.67° C | 93% | 1004.8 hPa | 0 mm | 0.45 m/s, 147° | 3 W/m² | - |
| 1777981304 | 16.67° C | 93% | 1004.9 hPa | 0 mm | 1.79 m/s, 53° | 3 W/m² | - |
| 1777981000 | 16.67° C | 93% | 1004.8 hPa | 0 mm | 1.79 m/s, 128° | 2 W/m² | - |
| 1777980697 | 16.67° C | 93% | 1004.8 hPa | 0 mm | 1.34 m/s, 192° | 1 W/m² | - |
| 1777980393 | 16.67° C | 93% | 1004.9 hPa | 0 mm | 1.34 m/s, 113° | 0 W/m² | - |
| 1777980092 | 16.67° C | 93% | 1004.9 hPa | 0 mm | 1.79 m/s, 148° | 0 W/m² | - |
| 1777979791 | 16.67° C | 93% | 1004.8 hPa | 0 mm | 0.45 m/s, 113° | 0 W/m² | - |
| 1777979487 | 16.67° C | 93% | 1004.8 hPa | 0 mm | 1.79 m/s, 141° | 0 W/m² | - |
| 1777979184 | 16.67° C | 93% | 1004.8 hPa | 0 mm | 1.34 m/s, 72° | 0 W/m² | - |
| 1777978881 | 16.67° C | 93% | 1004.6 hPa | 1.78 mm | 0 m/s | 0 W/m² | - |
| 1777978578 | 16.67° C | 94% | 1004.8 hPa | 1.78 mm | 1.34 m/s, 147° | 0 W/m² | - |
| 1777978273 | 16.67° C | 94% | 1004.7 hPa | 0 mm | 1.79 m/s, 91° | 0 W/m² | - |
| 1777977970 | 16.67° C | 94% | 1004.9 hPa | 0 mm | 0.89 m/s, 30° | 0 W/m² | - |
| 1777977668 | 16.67° C | 94% | 1004.7 hPa | 0 mm | 1.79 m/s, 39° | 0 W/m² | - |
| 1777977364 | 16.67° C | 94% | 1004.6 hPa | 0 mm | 1.79 m/s, 77° | 0 W/m² | - |
| 1777977062 | 16.67° C | 94% | 1004.7 hPa | 0 mm | 1.79 m/s, 32° | 0 W/m² | - |
| 1777976759 | 16.67° C | 94% | 1004.6 hPa | 0 mm | 0.89 m/s, 127° | 0 W/m² | - |
* Rain latest hour (hover to see other rain measurements)
** Current wind speed in m/s (hover to see current wind gust speed)